UAL1757 KIAD-KSFO

Flight info

Callsign UAL1757
Flight time N/A
Altitude 30000
Route RNLDI4 OTTTO Q176 STL MCI GLD VOAXA Q136 RUMPS OAL INYOE DYAMD5
Aircraft B739/M-SDE2E3FGHIRWXY/LB1

Departure

Time N/A
Airport Washington Dulles International Airport (KIAD)

Arrival

Time 2026-04-30 22:43
Airport San Francisco International Airport (KSFO)
Time Latitude Longitude Altitude Speed Heading
2026-04-30 17:39 38.80748 -80.55964 30155 ft 406 kts 267°
2026-04-30 17:41 38.79850 -80.84549 31986 ft 396 kts 267°
2026-04-30 17:42 38.79615 -80.91630 32017 ft 399 kts 267°
2026-04-30 17:43 38.79012 -81.09420 32023 ft 400 kts 266°
2026-04-30 17:44 38.78251 -81.30758 32038 ft 399 kts 266°
2026-04-30 17:47 38.77041 -81.62615 32048 ft 398 kts 266°
2026-04-30 17:48 38.76041 -81.87362 32059 ft 397 kts 266°
2026-04-30 17:50 38.74908 -82.15634 32067 ft 397 kts 267°
2026-04-30 17:52 38.74100 -82.36799 32079 ft 396 kts 267°
2026-04-30 17:54 38.72808 -82.68500 32091 ft 397 kts 267°
2026-04-30 17:56 38.71585 -82.96714 32091 ft 397 kts 267°
2026-04-30 17:58 38.70624 -83.17839 32091 ft 396 kts 267°
2026-04-30 18:00 38.69288 -83.45953 32100 ft 395 kts 267°
2026-04-30 18:01 38.68422 -83.63447 32120 ft 395 kts 266°
2026-04-30 18:02 38.67346 -83.84482 32097 ft 395 kts 266°
2026-04-30 18:04 38.66233 -84.05482 32108 ft 389 kts 268°
2026-04-30 18:06 38.64751 -84.32469 32098 ft 380 kts 268°
2026-04-30 18:08 38.65207 -84.54970 32100 ft 382 kts 276°
2026-04-30 18:10 38.67298 -84.82063 32100 ft 382 kts 276°
2026-04-30 18:11 38.69066 -85.05664 32110 ft 380 kts 276°
2026-04-30 18:13 38.70225 -85.22474 32126 ft 378 kts 275°
2026-04-30 18:14 38.71053 -85.39242 32130 ft 376 kts 275°
2026-04-30 18:15 38.72049 -85.59248 32139 ft 374 kts 275°
2026-04-30 18:16 38.72694 -85.72551 32126 ft 374 kts 275°
2026-04-30 18:17 38.73011 -85.79200 32128 ft 374 kts 275°
2026-04-30 18:18 38.73478 -85.89164 32127 ft 373 kts 275°
2026-04-30 18:18 38.73785 -85.95803 32115 ft 373 kts 275°
2026-04-30 18:19 38.74088 -86.02439 32115 ft 373 kts 274°
2026-04-30 18:19 38.74384 -86.09009 32124 ft 372 kts 274°
2026-04-30 18:20 38.74679 -86.15621 32106 ft 371 kts 274°
2026-04-30 18:20 38.74969 -86.22223 32104 ft 371 kts 274°
2026-04-30 18:21 38.75255 -86.28815 32108 ft 371 kts 274°
2026-04-30 18:21 38.75538 -86.35407 32110 ft 371 kts 274°
2026-04-30 18:22 38.75817 -86.42015 32110 ft 371 kts 274°
2026-04-30 18:22 38.76233 -86.51943 32106 ft 373 kts 274°
2026-04-30 18:23 38.76508 -86.58581 32108 ft 373 kts 274°
2026-04-30 18:23 38.76780 -86.65223 32101 ft 373 kts 274°
2026-04-30 18:24 38.77180 -86.75167 32116 ft 373 kts 274°
2026-04-30 18:25 38.77442 -86.81803 32119 ft 373 kts 274°
2026-04-30 18:25 38.77828 -86.91755 32119 ft 373 kts 274°
2026-04-30 18:26 38.78205 -87.01715 32132 ft 373 kts 274°
2026-04-30 18:27 38.78573 -87.11663 32134 ft 372 kts 274°
2026-04-30 18:28 38.78934 -87.21600 32133 ft 372 kts 274°
2026-04-30 18:28 38.79286 -87.31536 32124 ft 372 kts 274°
2026-04-30 18:29 38.79738 -87.44712 32136 ft 371 kts 273°
2026-04-30 18:30 38.80177 -87.57904 32135 ft 370 kts 273°
2026-04-30 18:31 38.80495 -87.67775 32124 ft 369 kts 273°
2026-04-30 18:32 38.80805 -87.77641 32133 ft 369 kts 273°
2026-04-30 18:33 38.81106 -87.87491 32138 ft 369 kts 273°
2026-04-30 18:33 38.81400 -87.97326 32136 ft 368 kts 273°
2026-04-30 18:34 38.81684 -88.07151 32142 ft 368 kts 273°
2026-04-30 18:35 38.81869 -88.13703 32142 ft 368 kts 273°
2026-04-30 18:35 38.82050 -88.20261 32151 ft 368 kts 273°
2026-04-30 18:36 38.82315 -88.30101 32149 ft 368 kts 273°
2026-04-30 18:37 38.82571 -88.39944 32135 ft 368 kts 273°
2026-04-30 18:37 38.82739 -88.46505 32137 ft 368 kts 273°
2026-04-30 18:38 38.82901 -88.53076 32137 ft 369 kts 273°
2026-04-30 18:38 38.83059 -88.59608 32139 ft 369 kts 273°
2026-04-30 18:39 38.83215 -88.66192 32139 ft 369 kts 273°
2026-04-30 18:39 38.83368 -88.72779 32136 ft 369 kts 273°
2026-04-30 18:40 38.83517 -88.79371 32141 ft 370 kts 272°
2026-04-30 18:40 38.83663 -88.85968 32139 ft 370 kts 272°
2026-04-30 18:41 38.83806 -88.92571 32137 ft 371 kts 272°
2026-04-30 18:41 38.83943 -88.99183 32137 ft 371 kts 272°
2026-04-30 18:42 38.84078 -89.05794 32137 ft 371 kts 272°
2026-04-30 18:42 38.84272 -89.15705 32138 ft 371 kts 272°
2026-04-30 18:45 38.84920 -89.52027 32143 ft 370 kts 272°
2026-04-30 18:46 38.85028 -89.58625 32139 ft 370 kts 272°
2026-04-30 18:46 38.85130 -89.65235 32138 ft 370 kts 272°
2026-04-30 18:47 38.85228 -89.71834 32134 ft 370 kts 272°
2026-04-30 18:47 38.85323 -89.78429 32138 ft 369 kts 272°
2026-04-30 18:48 38.85415 -89.85022 32136 ft 369 kts 272°
2026-04-30 18:48 38.85501 -89.91614 32141 ft 369 kts 272°
2026-04-30 18:49 38.85585 -89.98207 32139 ft 370 kts 272°
2026-04-30 18:49 38.85666 -90.04803 32135 ft 370 kts 272°
2026-04-30 18:50 38.85742 -90.11396 32138 ft 370 kts 272°
2026-04-30 18:50 38.85814 -90.17995 32140 ft 370 kts 272°
2026-04-30 18:51 38.85883 -90.24591 32139 ft 370 kts 272°
2026-04-30 18:51 38.85948 -90.31186 32128 ft 370 kts 272°
2026-04-30 18:52 38.86011 -90.37798 32126 ft 370 kts 272°
2026-04-30 18:52 38.86069 -90.44408 32127 ft 371 kts 272°
2026-04-30 18:53 38.86387 -90.50950 32115 ft 370 kts 278°
2026-04-30 18:53 38.87178 -90.57479 32107 ft 371 kts 278°
2026-04-30 18:54 38.87957 -90.64021 32114 ft 371 kts 278°
2026-04-30 18:54 38.88725 -90.70568 32129 ft 371 kts 278°
2026-04-30 18:55 38.89490 -90.77134 32127 ft 372 kts 278°
2026-04-30 18:55 38.90626 -90.86977 32119 ft 371 kts 278°
2026-04-30 18:56 38.91754 -90.96821 32119 ft 372 kts 278°
2026-04-30 18:57 38.92876 -91.06686 32116 ft 372 kts 278°
2026-04-30 18:57 38.93499 -91.12201 32116 ft 372 kts 278°
2026-04-30 18:58 38.94605 -91.22038 32110 ft 373 kts 277°
2026-04-30 18:59 38.95707 -91.31924 32108 ft 373 kts 277°
2026-04-30 19:00 38.97166 -91.45123 32106 ft 373 kts 277°
2026-04-30 19:01 38.98609 -91.58329 32110 ft 373 kts 277°
2026-04-30 19:02 38.99683 -91.68244 32119 ft 373 kts 277°
2026-04-30 19:03 39.01101 -91.81474 32106 ft 374 kts 277°
2026-04-30 19:04 39.02506 -91.94733 32100 ft 374 kts 277°
2026-04-30 19:05 39.03899 -92.08008 32103 ft 374 kts 277°
2026-04-30 19:06 39.05276 -92.21290 32114 ft 375 kts 277°
2026-04-30 19:06 39.06300 -92.31264 32109 ft 375 kts 277°
2026-04-30 19:07 39.07317 -92.41257 32106 ft 376 kts 276°
2026-04-30 19:08 39.08655 -92.54539 32106 ft 375 kts 276°
2026-04-30 19:09 39.09652 -92.64530 32122 ft 375 kts 276°
2026-04-30 19:09 39.10312 -92.71189 32114 ft 375 kts 276°
2026-04-30 19:10 39.11619 -92.84509 32111 ft 375 kts 276°
2026-04-30 19:11 39.12594 -92.94552 32104 ft 375 kts 276°
2026-04-30 19:12 39.13232 -93.01171 32103 ft 375 kts 276°
2026-04-30 19:12 39.13871 -93.07836 32107 ft 375 kts 276°
2026-04-30 19:13 39.15136 -93.21171 32107 ft 375 kts 276°
2026-04-30 19:14 39.15763 -93.27845 32121 ft 375 kts 276°
2026-04-30 19:14 39.16387 -93.34523 32105 ft 376 kts 276°
2026-04-30 19:15 39.17008 -93.41209 32114 ft 376 kts 276°
2026-04-30 19:15 39.17933 -93.51250 32115 ft 376 kts 276°
2026-04-30 19:16 39.18544 -93.57945 32116 ft 376 kts 276°
2026-04-30 19:17 39.19455 -93.67995 32102 ft 376 kts 276°
2026-04-30 19:17 39.20359 -93.78054 32099 ft 377 kts 275°
2026-04-30 19:18 39.21253 -93.88127 32110 ft 377 kts 275°
2026-04-30 19:19 39.21844 -93.94840 32097 ft 377 kts 275°
2026-04-30 19:19 39.22721 -94.04877 32102 ft 377 kts 275°
2026-04-30 19:20 39.23304 -94.11600 32099 ft 377 kts 275°
2026-04-30 19:21 39.24172 -94.21695 32097 ft 378 kts 275°
2026-04-30 19:22 39.25314 -94.35147 32099 ft 377 kts 275°
2026-04-30 19:23 39.27000 -94.55353 32091 ft 377 kts 275°
2026-04-30 19:24 39.27830 -94.65452 32091 ft 377 kts 275°
2026-04-30 19:25 39.28948 -94.82287 32095 ft 376 kts 272°
2026-04-30 19:26 39.29477 -94.95781 32090 ft 376 kts 272°
2026-04-30 19:27 39.29893 -95.05886 32100 ft 376 kts 272°
2026-04-30 19:28 39.30310 -95.16007 32094 ft 376 kts 272°
2026-04-30 19:29 39.30854 -95.29451 32118 ft 376 kts 272°
2026-04-30 19:30 39.31384 -95.42939 32116 ft 377 kts 272°
2026-04-30 19:31 39.31898 -95.56451 32108 ft 377 kts 272°
2026-04-30 19:31 39.32276 -95.66592 32106 ft 377 kts 272°
2026-04-30 19:32 39.32522 -95.73355 32119 ft 377 kts 272°
2026-04-30 19:32 39.32764 -95.80127 32103 ft 378 kts 272°
2026-04-30 19:33 39.33003 -95.86901 32125 ft 378 kts 272°
2026-04-30 19:33 39.33238 -95.93679 32109 ft 378 kts 272°
2026-04-30 19:34 39.33468 -96.00460 32123 ft 378 kts 272°
2026-04-30 19:35 39.33807 -96.10655 32125 ft 379 kts 272°
2026-04-30 19:35 39.34028 -96.17451 32121 ft 379 kts 272°
2026-04-30 19:36 39.34246 -96.24253 32112 ft 379 kts 272°
2026-04-30 19:36 39.34565 -96.34458 32129 ft 379 kts 272°
2026-04-30 19:37 39.34773 -96.41268 32123 ft 379 kts 272°
2026-04-30 19:37 39.34977 -96.48069 32117 ft 379 kts 271°
2026-04-30 19:38 39.35176 -96.54862 32122 ft 378 kts 271°
2026-04-30 19:38 39.35371 -96.61650 32119 ft 377 kts 271°
2026-04-30 19:39 39.35563 -96.68425 32124 ft 377 kts 271°
2026-04-30 19:39 39.35749 -96.75159 32118 ft 378 kts 271°
2026-04-30 19:40 39.35934 -96.81992 32122 ft 378 kts 271°
2026-04-30 19:40 39.36112 -96.88741 32126 ft 378 kts 271°
2026-04-30 19:41 39.36291 -96.95578 32129 ft 378 kts 271°
2026-04-30 19:41 39.36461 -97.02320 32129 ft 378 kts 271°
2026-04-30 19:42 39.36628 -97.09116 32126 ft 378 kts 271°
2026-04-30 19:42 39.36791 -97.15910 32135 ft 378 kts 271°
2026-04-30 19:43 39.36951 -97.22706 32140 ft 379 kts 271°
2026-04-30 19:44 39.37160 -97.31775 32139 ft 380 kts 271°
2026-04-30 19:44 39.37311 -97.38595 32138 ft 380 kts 271°
2026-04-30 19:45 39.37457 -97.45424 32149 ft 380 kts 271°
2026-04-30 19:45 39.37600 -97.52252 32147 ft 381 kts 271°
2026-04-30 19:46 39.37741 -97.59099 32147 ft 381 kts 271°
2026-04-30 19:46 39.37876 -97.65952 32145 ft 381 kts 271°
2026-04-30 19:47 39.38007 -97.72806 32148 ft 382 kts 271°
2026-04-30 19:47 39.38139 -97.79670 32144 ft 382 kts 271°
2026-04-30 19:48 39.38266 -97.86529 32158 ft 382 kts 271°
2026-04-30 19:48 39.38385 -97.93397 32156 ft 382 kts 271°
2026-04-30 19:49 39.38499 -98.00267 32155 ft 382 kts 271°
2026-04-30 19:49 39.38665 -98.10596 32157 ft 384 kts 271°
2026-04-30 19:50 39.38772 -98.17486 32156 ft 384 kts 271°
2026-04-30 19:50 39.38876 -98.24385 32161 ft 384 kts 270°
2026-04-30 19:51 39.38971 -98.31284 32169 ft 384 kts 270°
2026-04-30 19:51 39.39064 -98.38171 32162 ft 383 kts 270°
2026-04-30 19:52 39.39156 -98.45050 32173 ft 383 kts 270°
2026-04-30 19:52 39.39240 -98.51871 32171 ft 382 kts 270°
2026-04-30 19:53 39.39322 -98.58754 32163 ft 382 kts 270°
2026-04-30 19:53 39.39397 -98.65624 32166 ft 382 kts 270°
2026-04-30 19:54 39.39472 -98.72500 32173 ft 382 kts 270°
2026-04-30 19:54 39.39541 -98.79376 32167 ft 383 kts 270°
2026-04-30 19:55 39.39608 -98.86258 32170 ft 383 kts 270°
2026-04-30 19:55 39.39672 -98.93141 32178 ft 383 kts 270°
2026-04-30 19:56 39.39729 -99.00025 32177 ft 383 kts 270°
2026-04-30 19:56 39.39781 -99.06902 32171 ft 383 kts 270°
2026-04-30 19:57 39.39830 -99.13786 32176 ft 383 kts 270°
2026-04-30 19:57 39.39875 -99.20679 32177 ft 383 kts 269°
2026-04-30 19:58 39.39916 -99.27571 32174 ft 384 kts 269°
2026-04-30 19:58 39.39956 -99.34464 32184 ft 384 kts 269°
2026-04-30 19:59 39.39989 -99.41360 32193 ft 383 kts 269°
2026-04-30 20:00 39.40031 -99.51708 32192 ft 384 kts 269°
2026-04-30 20:00 39.40053 -99.58561 32197 ft 384 kts 269°
2026-04-30 20:01 39.40080 -99.68950 32201 ft 386 kts 269°
2026-04-30 20:01 39.40093 -99.75882 32204 ft 386 kts 269°
2026-04-30 20:02 39.40103 -99.86314 32201 ft 387 kts 269°
2026-04-30 20:03 39.40106 -99.96734 32192 ft 387 kts 269°
2026-04-30 20:03 39.40104 -100.03691 32205 ft 387 kts 269°
2026-04-30 20:04 39.40097 -100.10658 32201 ft 388 kts 269°
2026-04-30 20:05 39.40077 -100.21118 32193 ft 388 kts 269°
2026-04-30 20:05 39.40049 -100.31535 32193 ft 388 kts 269°
2026-04-30 20:06 39.40025 -100.38539 32195 ft 387 kts 269°
2026-04-30 20:06 39.39997 -100.45457 32191 ft 387 kts 269°
2026-04-30 20:07 39.39963 -100.52415 32203 ft 387 kts 268°
2026-04-30 20:08 39.39906 -100.62847 32213 ft 387 kts 268°
2026-04-30 20:08 39.39864 -100.69803 32211 ft 387 kts 269°
2026-04-30 20:09 39.39819 -100.76750 32213 ft 387 kts 268°
2026-04-30 20:09 39.39741 -100.87174 32220 ft 386 kts 268°
2026-04-30 20:10 39.39652 -100.97575 32221 ft 386 kts 268°
2026-04-30 20:11 39.39555 -101.07977 32224 ft 386 kts 268°
2026-04-30 20:11 39.39487 -101.14921 32224 ft 386 kts 268°
2026-04-30 20:12 39.39374 -101.25340 32223 ft 387 kts 268°
2026-04-30 20:13 39.39294 -101.32314 32215 ft 388 kts 268°
2026-04-30 20:13 39.39210 -101.39304 32212 ft 389 kts 268°
2026-04-30 20:14 39.39120 -101.46306 32210 ft 390 kts 268°
2026-04-30 20:14 39.39026 -101.53311 32202 ft 390 kts 268°
2026-04-30 20:15 39.38929 -101.60316 32201 ft 390 kts 268°
2026-04-30 20:15 39.38829 -101.67336 32202 ft 391 kts 268°
2026-04-30 20:16 39.39301 -101.74345 32208 ft 393 kts 275°
2026-04-30 20:16 39.40042 -101.81300 32203 ft 393 kts 275°
2026-04-30 20:17 39.40768 -101.88312 32205 ft 394 kts 275°
2026-04-30 20:17 39.41484 -101.95331 32206 ft 394 kts 275°
2026-04-30 20:18 39.42195 -102.02350 32209 ft 394 kts 275°
2026-04-30 20:18 39.42903 -102.09379 32212 ft 395 kts 275°
2026-04-30 20:19 39.43608 -102.16422 32210 ft 395 kts 275°
2026-04-30 20:19 39.44309 -102.23478 32201 ft 395 kts 275°
2026-04-30 20:20 39.45007 -102.30537 32199 ft 396 kts 275°
2026-04-30 20:20 39.45700 -102.37598 32204 ft 396 kts 275°
2026-04-30 20:21 39.46390 -102.44666 32201 ft 395 kts 275°
2026-04-30 20:21 39.47075 -102.51718 32204 ft 395 kts 274°
2026-04-30 20:22 39.47754 -102.58767 32197 ft 394 kts 274°
2026-04-30 20:22 39.48428 -102.65809 32210 ft 394 kts 274°
2026-04-30 20:23 39.49097 -102.72855 32204 ft 394 kts 274°
2026-04-30 20:23 39.49762 -102.79896 32208 ft 394 kts 274°
2026-04-30 20:24 39.50418 -102.86886 32203 ft 394 kts 274°
2026-04-30 20:24 39.51075 -102.93934 32197 ft 394 kts 274°
2026-04-30 20:25 39.52057 -103.04568 32207 ft 395 kts 274°
2026-04-30 20:26 39.53022 -103.15113 32213 ft 396 kts 274°
2026-04-30 20:26 39.53986 -103.25760 32207 ft 397 kts 274°
2026-04-30 20:27 39.55261 -103.39998 32200 ft 399 kts 274°
2026-04-30 20:28 39.56523 -103.54302 32195 ft 401 kts 274°
2026-04-30 20:30 39.58083 -103.72281 32204 ft 403 kts 274°
2026-04-30 20:31 39.59930 -103.93989 32210 ft 405 kts 274°
2026-04-30 20:32 39.61340 -104.10909 32216 ft 405 kts 274°
2026-04-30 20:33 39.62285 -104.22409 32209 ft 405 kts 274°
2026-04-30 20:34 39.63011 -104.31339 32219 ft 404 kts 274°
2026-04-30 20:35 39.63884 -104.42208 32208 ft 404 kts 274°
2026-04-30 20:35 39.64747 -104.53077 32221 ft 403 kts 274°
2026-04-30 20:36 39.65312 -104.60263 32218 ft 403 kts 274°
2026-04-30 20:37 39.66156 -104.71122 32205 ft 403 kts 274°
2026-04-30 20:37 39.66714 -104.78357 32211 ft 403 kts 273°
2026-04-30 20:38 39.67267 -104.85594 32200 ft 403 kts 273°
2026-04-30 20:38 39.67816 -104.92837 32200 ft 403 kts 273°
2026-04-30 20:39 39.68629 -105.03690 32202 ft 403 kts 273°
2026-04-30 20:40 39.69433 -105.14553 32213 ft 403 kts 273°
2026-04-30 20:40 39.69965 -105.21809 32205 ft 404 kts 273°
2026-04-30 20:41 39.70756 -105.32729 32220 ft 406 kts 273°
2026-04-30 20:41 39.71279 -105.40041 32221 ft 407 kts 273°
2026-04-30 20:42 39.71796 -105.47355 32205 ft 407 kts 273°
2026-04-30 20:43 39.72573 -105.58387 32210 ft 410 kts 273°
2026-04-30 20:43 39.73087 -105.65770 32217 ft 411 kts 273°
2026-04-30 20:44 39.73844 -105.76841 32218 ft 413 kts 273°
2026-04-30 20:45 39.74850 -105.91744 32223 ft 415 kts 273°
2026-04-30 20:45 39.75349 -105.99229 32222 ft 416 kts 273°
2026-04-30 20:46 39.76330 -106.14202 32208 ft 416 kts 273°
2026-04-30 20:47 39.77052 -106.25419 32186 ft 414 kts 273°
2026-04-30 20:48 39.77761 -106.36596 32183 ft 414 kts 273°
2026-04-30 20:48 39.78228 -106.44049 32153 ft 414 kts 273°
2026-04-30 20:49 39.78678 -106.51502 32158 ft 413 kts 271°
2026-04-30 20:50 39.77814 -106.62573 32154 ft 410 kts 261°
2026-04-30 20:50 39.76997 -106.69901 32147 ft 410 kts 262°
2026-04-30 20:51 39.76199 -106.77176 32152 ft 409 kts 262°
2026-04-30 20:51 39.74992 -106.88150 32135 ft 409 kts 262°
2026-04-30 20:52 39.74179 -106.95470 32142 ft 410 kts 262°
2026-04-30 20:53 39.72951 -107.06459 32147 ft 410 kts 261°
2026-04-30 20:53 39.72125 -107.13792 32148 ft 410 kts 261°
2026-04-30 20:54 39.70877 -107.24780 32172 ft 410 kts 261°
2026-04-30 20:55 39.69616 -107.35803 32171 ft 413 kts 261°
2026-04-30 20:55 39.68764 -107.43195 32164 ft 415 kts 261°
2026-04-30 20:56 39.67468 -107.54355 32140 ft 418 kts 261°
2026-04-30 20:57 39.66154 -107.65567 32119 ft 419 kts 261°
2026-04-30 20:57 39.65272 -107.73059 32097 ft 420 kts 261°
2026-04-30 20:58 39.63934 -107.84313 32093 ft 421 kts 261°
2026-04-30 20:58 39.63036 -107.91823 32071 ft 421 kts 261°
2026-04-30 20:59 39.61681 -108.03075 32083 ft 421 kts 261°
2026-04-30 21:00 39.59857 -108.18081 32087 ft 421 kts 261°
2026-04-30 21:01 39.58477 -108.29316 32098 ft 421 kts 261°
2026-04-30 21:02 39.57088 -108.40547 32097 ft 420 kts 261°
2026-04-30 21:02 39.56155 -108.48013 32111 ft 419 kts 261°
2026-04-30 21:03 39.55223 -108.55472 32100 ft 419 kts 261°
2026-04-30 21:03 39.54295 -108.62846 32141 ft 417 kts 261°
2026-04-30 21:04 39.53357 -108.70258 32164 ft 417 kts 261°
2026-04-30 21:04 39.51944 -108.81358 32143 ft 415 kts 260°
2026-04-30 21:05 39.50999 -108.88726 32180 ft 415 kts 260°
2026-04-30 21:05 39.50050 -108.96098 32183 ft 415 kts 260°
2026-04-30 21:06 39.49095 -109.03478 32184 ft 416 kts 260°
2026-04-30 21:06 39.48132 -109.10873 32193 ft 417 kts 260°
2026-04-30 21:07 39.47162 -109.18287 32197 ft 418 kts 260°
2026-04-30 21:07 39.46185 -109.25714 32188 ft 419 kts 260°
2026-04-30 21:08 39.45202 -109.33154 32174 ft 420 kts 260°
2026-04-30 21:08 39.44210 -109.40622 32167 ft 422 kts 260°
2026-04-30 21:09 39.43211 -109.48101 32163 ft 422 kts 260°
2026-04-30 21:09 39.42207 -109.55583 32149 ft 423 kts 260°
2026-04-30 21:10 39.41196 -109.63076 32135 ft 423 kts 260°
2026-04-30 21:10 39.40180 -109.70567 32134 ft 423 kts 260°
2026-04-30 21:11 39.39158 -109.78073 32120 ft 424 kts 260°
2026-04-30 21:11 39.38129 -109.85593 32064 ft 425 kts 261°
2026-04-30 21:12 39.37094 -109.93123 32065 ft 425 kts 260°
2026-04-30 21:12 39.36064 -110.00645 32047 ft 425 kts 261°
2026-04-30 21:13 39.35060 -110.08166 32062 ft 425 kts 261°
2026-04-30 21:13 39.34053 -110.15688 32064 ft 425 kts 261°
2026-04-30 21:14 39.33045 -110.23164 32063 ft 425 kts 261°
2026-04-30 21:14 39.32023 -110.30692 32063 ft 426 kts 261°
2026-04-30 21:15 39.30974 -110.38225 32071 ft 426 kts 261°
2026-04-30 21:15 39.29939 -110.45751 32069 ft 425 kts 261°
2026-04-30 21:16 39.28923 -110.53270 32072 ft 425 kts 261°
2026-04-30 21:16 39.27890 -110.60774 32070 ft 425 kts 261°
2026-04-30 21:17 39.26848 -110.68264 32077 ft 424 kts 261°
2026-04-30 21:17 39.25801 -110.75753 32075 ft 424 kts 261°
2026-04-30 21:18 39.24750 -110.83238 32087 ft 424 kts 261°
2026-04-30 21:18 39.23695 -110.90715 32091 ft 423 kts 261°
2026-04-30 21:19 39.22635 -110.98184 32092 ft 424 kts 261°
2026-04-30 21:19 39.21569 -111.05657 32092 ft 424 kts 261°
2026-04-30 21:20 39.20508 -111.13070 32098 ft 423 kts 261°
2026-04-30 21:20 39.19435 -111.20529 32096 ft 424 kts 261°
2026-04-30 21:21 39.18356 -111.28003 32110 ft 424 kts 261°
2026-04-30 21:22 39.16725 -111.39230 32111 ft 426 kts 261°
2026-04-30 21:23 39.14709 -111.52999 32111 ft 427 kts 261°
2026-04-30 21:23 39.13043 -111.64280 32121 ft 427 kts 261°
2026-04-30 21:24 39.11929 -111.71786 32122 ft 427 kts 261°
2026-04-30 21:24 39.10810 -111.79287 32116 ft 427 kts 261°
2026-04-30 21:25 39.09129 -111.90490 32112 ft 426 kts 261°
2026-04-30 21:26 39.07435 -112.01712 32116 ft 426 kts 261°
2026-04-30 21:27 39.05728 -112.12936 32097 ft 426 kts 262°
2026-04-30 21:27 39.04585 -112.20413 32112 ft 427 kts 262°
2026-04-30 21:28 39.02856 -112.31668 32104 ft 428 kts 262°
2026-04-30 21:29 39.01113 -112.42923 32120 ft 428 kts 262°
2026-04-30 21:30 38.98174 -112.61676 32115 ft 428 kts 262°
2026-04-30 21:31 38.95215 -112.80383 32127 ft 427 kts 262°
2026-04-30 21:32 38.93424 -112.91598 32105 ft 427 kts 262°
2026-04-30 21:32 38.92224 -112.99070 32115 ft 427 kts 262°
2026-04-30 21:33 38.90416 -113.10284 32101 ft 428 kts 262°
2026-04-30 21:34 38.89202 -113.17767 32102 ft 428 kts 262°
2026-04-30 21:34 38.87378 -113.28942 32102 ft 429 kts 262°
2026-04-30 21:35 38.86151 -113.36435 32111 ft 429 kts 262°
2026-04-30 21:35 38.84918 -113.43930 32097 ft 430 kts 262°
2026-04-30 21:36 38.83678 -113.51422 32107 ft 429 kts 262°
2026-04-30 21:37 38.81185 -113.66417 32094 ft 430 kts 262°
2026-04-30 21:37 38.79929 -113.73920 32097 ft 430 kts 262°
2026-04-30 21:38 38.78670 -113.81415 32093 ft 430 kts 262°
2026-04-30 21:38 38.77407 -113.88903 32123 ft 430 kts 262°
2026-04-30 21:39 38.76141 -113.96389 32100 ft 430 kts 262°
2026-04-30 21:39 38.74871 -114.03878 32113 ft 431 kts 262°
2026-04-30 21:40 38.73593 -114.11380 32117 ft 431 kts 262°
2026-04-30 21:40 38.72311 -114.18874 32112 ft 431 kts 262°
2026-04-30 21:41 38.71024 -114.26373 32114 ft 431 kts 262°
2026-04-30 21:41 38.69730 -114.33877 32126 ft 431 kts 262°
2026-04-30 21:42 38.68432 -114.41379 32124 ft 432 kts 262°
2026-04-30 21:42 38.67126 -114.48889 32127 ft 432 kts 262°
2026-04-30 21:43 38.65825 -114.56342 32123 ft 432 kts 262°
2026-04-30 21:43 38.64507 -114.63863 32119 ft 433 kts 262°
2026-04-30 21:44 38.63185 -114.71371 32116 ft 432 kts 261°
2026-04-30 21:44 38.61861 -114.78873 32114 ft 433 kts 261°
2026-04-30 21:45 38.60529 -114.86385 32125 ft 433 kts 261°
2026-04-30 21:45 38.59194 -114.93891 32131 ft 433 kts 261°
2026-04-30 21:46 38.57853 -115.01396 32125 ft 434 kts 261°
2026-04-30 21:46 38.56505 -115.08913 32113 ft 434 kts 261°
2026-04-30 21:47 38.55144 -115.16430 32124 ft 434 kts 261°
2026-04-30 21:47 38.53777 -115.23935 32123 ft 434 kts 261°
2026-04-30 21:48 38.52406 -115.31448 32127 ft 434 kts 261°
2026-04-30 21:48 38.51031 -115.38960 32129 ft 434 kts 261°
2026-04-30 21:49 38.49650 -115.46470 32132 ft 435 kts 261°
2026-04-30 21:49 38.48259 -115.54005 32119 ft 436 kts 260°
2026-04-30 21:50 38.46863 -115.61540 32110 ft 436 kts 260°
2026-04-30 21:50 38.45461 -115.69076 32115 ft 436 kts 260°
2026-04-30 21:51 38.44054 -115.76607 32106 ft 437 kts 260°
2026-04-30 21:51 38.42642 -115.84142 32104 ft 437 kts 260°
2026-04-30 21:52 38.41235 -115.91622 32108 ft 437 kts 260°
2026-04-30 21:52 38.39815 -115.99150 32110 ft 437 kts 260°
2026-04-30 21:53 38.38384 -116.06693 32107 ft 438 kts 259°
2026-04-30 21:53 38.36949 -116.14239 32120 ft 438 kts 260°
2026-04-30 21:54 38.35509 -116.21783 32125 ft 439 kts 259°
2026-04-30 21:54 38.34061 -116.29341 32109 ft 439 kts 259°
2026-04-30 21:55 38.32566 -116.36880 32109 ft 440 kts 258°
2026-04-30 21:55 38.30872 -116.44376 32102 ft 440 kts 257°
2026-04-30 21:56 38.29150 -116.51845 32108 ft 440 kts 257°
2026-04-30 21:56 38.27446 -116.59321 32101 ft 439 kts 257°
2026-04-30 21:57 38.25754 -116.66784 32101 ft 439 kts 257°
2026-04-30 21:57 38.24062 -116.74239 32121 ft 439 kts 257°
2026-04-30 21:58 38.22364 -116.81694 32126 ft 439 kts 257°
2026-04-30 21:58 38.20661 -116.89143 32111 ft 438 kts 257°
2026-04-30 21:59 38.18956 -116.96578 32106 ft 438 kts 257°
2026-04-30 22:00 38.16386 -117.07735 32119 ft 439 kts 257°
2026-04-30 22:00 38.13809 -117.18881 32115 ft 438 kts 257°
2026-04-30 22:01 38.12099 -117.26246 32113 ft 438 kts 257°
2026-04-30 22:01 38.10379 -117.33676 32105 ft 439 kts 257°
2026-04-30 22:02 38.08660 -117.41124 32116 ft 440 kts 257°
2026-04-30 22:02 38.06937 -117.48564 32107 ft 440 kts 257°
2026-04-30 22:03 38.05207 -117.56011 32099 ft 441 kts 257°
2026-04-30 22:03 38.03469 -117.63466 32084 ft 441 kts 257°
2026-04-30 22:04 38.01727 -117.70917 32072 ft 441 kts 257°
2026-04-30 22:05 37.99654 -117.82192 32077 ft 435 kts 266°
2026-04-30 22:05 37.98916 -117.89813 32067 ft 436 kts 266°
2026-04-30 22:06 37.98159 -117.97441 32062 ft 437 kts 266°
2026-04-30 22:06 37.96965 -118.08886 32053 ft 437 kts 265°
2026-04-30 22:07 37.96153 -118.16511 32058 ft 437 kts 265°
2026-04-30 22:07 37.95337 -118.24138 32055 ft 437 kts 265°
2026-04-30 22:08 37.94516 -118.31766 32063 ft 437 kts 265°
2026-04-30 22:08 37.93689 -118.39395 32073 ft 437 kts 265°
2026-04-30 22:09 37.92859 -118.47008 32099 ft 436 kts 265°
2026-04-30 22:09 37.92026 -118.54615 32101 ft 437 kts 265°
2026-04-30 22:10 37.91327 -118.60950 32105 ft 437 kts 265°
2026-04-30 22:10 37.90482 -118.68583 32114 ft 438 kts 265°
2026-04-30 22:11 37.89201 -118.80040 32124 ft 439 kts 265°
2026-04-30 22:12 37.88333 -118.87682 32137 ft 439 kts 265°
2026-04-30 22:12 37.87458 -118.95340 32137 ft 440 kts 265°
2026-04-30 22:13 37.86576 -119.03004 32140 ft 440 kts 265°
2026-04-30 22:13 37.85689 -119.10675 32130 ft 440 kts 264°
2026-04-30 22:14 37.84800 -119.18322 32138 ft 439 kts 264°
2026-04-30 22:14 37.83908 -119.25964 32118 ft 439 kts 264°
2026-04-30 22:15 37.83011 -119.33596 32113 ft 438 kts 264°
2026-04-30 22:15 37.82112 -119.41206 32102 ft 437 kts 264°
2026-04-30 22:16 37.81208 -119.48811 32092 ft 437 kts 264°
2026-04-30 22:17 37.79391 -119.63978 32073 ft 436 kts 264°
2026-04-30 22:17 37.78021 -119.75287 32060 ft 436 kts 264°
2026-04-30 22:18 37.76638 -119.86634 32016 ft 436 kts 264°
2026-04-30 22:19 37.75238 -119.97998 32000 ft 436 kts 264°
2026-04-30 22:20 37.73830 -120.09347 31999 ft 436 kts 264°
2026-04-30 22:20 37.72884 -120.16920 31568 ft 442 kts 264°
2026-04-30 22:20 37.72402 -120.20779 30755 ft 445 kts 264°
2026-04-30 22:21 37.71916 -120.24641 29814 ft 445 kts 264°
2026-04-30 22:21 37.71428 -120.28510 28830 ft 447 kts 263°
2026-04-30 22:21 37.70941 -120.32354 28474 ft 435 kts 263°
2026-04-30 22:21 37.70469 -120.36065 28238 ft 421 kts 264°
2026-04-30 22:22 37.70013 -120.39642 28061 ft 406 kts 264°
2026-04-30 22:22 37.69582 -120.43135 27523 ft 402 kts 264°
2026-04-30 22:22 37.69177 -120.46614 26965 ft 398 kts 265°
2026-04-30 22:22 37.68784 -120.50048 26392 ft 396 kts 265°
2026-04-30 22:23 37.68390 -120.53489 25830 ft 393 kts 265°
2026-04-30 22:23 37.67996 -120.56896 25257 ft 391 kts 265°
2026-04-30 22:23 37.67602 -120.60277 24693 ft 389 kts 265°
2026-04-30 22:23 37.67207 -120.63644 24133 ft 387 kts 265°
2026-04-30 22:24 37.66811 -120.66997 23570 ft 385 kts 265°
2026-04-30 22:24 37.66419 -120.70332 23044 ft 383 kts 265°
2026-04-30 22:24 37.66032 -120.73594 22903 ft 370 kts 265°
2026-04-30 22:24 37.65652 -120.76776 22457 ft 366 kts 265°
2026-04-30 22:25 37.65273 -120.79943 21981 ft 365 kts 265°
2026-04-30 22:25 37.64893 -120.83102 21485 ft 363 kts 265°
2026-04-30 22:25 37.64514 -120.86247 20993 ft 362 kts 265°
2026-04-30 22:25 37.64137 -120.89378 20500 ft 360 kts 265°
2026-04-30 22:26 37.63383 -120.95597 19537 ft 357 kts 265°
2026-04-30 22:26 37.62993 -120.98675 19055 ft 355 kts 264°
2026-04-30 22:26 37.62584 -121.01738 18564 ft 354 kts 264°
2026-04-30 22:27 37.62172 -121.04792 18087 ft 352 kts 264°
2026-04-30 22:27 37.61761 -121.07832 17612 ft 351 kts 264°
2026-04-30 22:27 37.60949 -121.13870 16669 ft 348 kts 263°
2026-04-30 22:28 37.60150 -121.19817 15742 ft 345 kts 263°
2026-04-30 22:28 37.59750 -121.22788 15276 ft 343 kts 263°
2026-04-30 22:29 37.58630 -121.31657 13842 ft 341 kts 263°
2026-04-30 22:29 37.58299 -121.34611 13374 ft 339 kts 263°
2026-04-30 22:30 37.56970 -121.46260 11589 ft 331 kts 262°
2026-04-30 22:31 37.55978 -121.54814 10398 ft 322 kts 262°
2026-04-30 22:32 37.55032 -121.62764 10121 ft 286 kts 259°
2026-04-30 22:32 37.54060 -121.67096 9361 ft 289 kts 252°
2026-04-30 22:33 37.52279 -121.74226 8554 ft 279 kts 254°
2026-04-30 22:33 37.51164 -121.78869 8007 ft 276 kts 254°
2026-04-30 22:34 37.49489 -121.85822 6962 ft 278 kts 254°
2026-04-30 22:35 37.49505 -121.90541 6332 ft 274 kts 282°
2026-04-30 22:36 37.50955 -121.99862 5049 ft 267 kts 282°
2026-04-30 22:36 37.51303 -122.02145 4773 ft 264 kts 282°
2026-04-30 22:37 37.52322 -122.08852 3997 ft 254 kts 282°
2026-04-30 22:37 37.52643 -122.10972 3937 ft 238 kts 282°
2026-04-30 22:37 37.53224 -122.14822 3717 ft 206 kts 281°
2026-04-30 22:38 37.53920 -122.18196 3097 ft 191 kts 297°
2026-04-30 22:38 37.55083 -122.20910 2640 ft 160 kts 299°
2026-04-30 22:39 37.55246 -122.21290 2534 ft 155 kts 300°
2026-04-30 22:39 37.56595 -122.24542 1956 ft 131 kts 294°
2026-04-30 22:40 37.57910 -122.27589 1530 ft 133 kts 296°
2026-04-30 22:41 37.59204 -122.30591 1096 ft 127 kts 297°
2026-04-30 22:41 37.60053 -122.32575 695 ft 129 kts 295°
2026-04-30 22:42 37.61702 -122.36542 27 ft 117 kts 294°
2026-04-30 22:43 37.61992 -122.37249 21 ft 0 kts 300°
2026-04-30 22:43 37.62051 -122.37381 23 ft 9 kts 297°
2026-04-30 22:44 37.62119 -122.37545 21 ft 13 kts 297°
2026-04-30 22:45 37.62010 -122.37873 22 ft 10 kts 228°
2026-04-30 22:45 37.61924 -122.38001 23 ft 9 kts 239°
2026-04-30 22:46 37.61943 -122.38150 21 ft 9 kts 294°
2026-04-30 22:47 37.61866 -122.38170 21 ft 1 kts 166°
2026-04-30 22:47 37.61859 -122.38168 21 ft 0 kts 166°